Location: Hawks Ness
(60.2333°N, 1.1667°W)
Time: 22:29:36
(UTC+00:00)

Cosmos 1066 Rocket - Visible Passes

Search period start: 23 January 2020 00:00
Search period end: 02 February 2020 00:00
Orbit: 798 x 895 km, 81.2° (Epoch: 23 January)

Date Brightness Start Highest point End Pass type
(mag) Time Alt. Az. Time Alt. Az. Time Alt. Az.
23 Jan 6.0 16:51:42 10° W 16:55:57 23° NW 17:00:12 10° N visible
25 Jan 6.6 18:13:22 10° NNW 18:14:14 10° NNW 18:15:06 10° NNW visible
26 Jan 6.5 17:59:32 10° NW 18:00:49 11° NNW 18:02:07 10° N visible
27 Jan 6.5 17:45:48 10° NW 17:47:25 11° NNW 17:49:03 10° N visible
27 Jan 6.8 21:16:40 10° N 21:16:45 10° N 21:16:45 10° N visible
28 Jan 6.5 17:32:07 10° NW 17:34:01 12° NNW 17:35:56 10° N visible
28 Jan 6.7 21:03:29 10° N 21:03:41 10° N 21:03:41 10° N visible
28 Jan 7.0 22:45:29 10° N 22:45:36 11° N 22:45:36 11° N visible
29 Jan 6.4 17:18:27 10° NW 17:20:37 12° NNW 17:22:46 10° N visible
29 Jan 6.7 20:50:18 10° N 20:50:37 10° N 20:50:37 10° N visible
29 Jan 6.9 22:32:13 10° N 22:32:32 11° N 22:32:32 11° N visible
30 Jan 6.4 17:04:50 10° WNW 17:07:13 13° NNW 17:09:37 10° N visible
30 Jan 6.6 20:37:10 10° N 20:37:33 10° NNE 20:37:33 10° NNE visible
30 Jan 6.8 22:18:58 10° N 22:19:28 12° N 22:19:28 12° N visible
31 Jan 6.6 20:24:03 10° N 20:24:29 10° NNE 20:24:29 10° NNE visible
31 Jan 6.8 22:05:44 10° N 22:06:25 13° N 22:06:25 13° N visible
01 Feb 6.5 20:11:00 10° NNE 20:11:26 10° NNE 20:11:26 10° NNE visible
01 Feb 6.7 21:52:28 10° N 21:53:22 14° N 21:53:22 14° N visible
01 Feb 7.1 23:35:08 10° NNW 23:35:17 11° NNW 23:35:17 11° NNW visible
